This is the latest recevied weather packets stored in our database for station/object ZL1CTS-13. If no packets are shown the sender has not sent any weather packets the latest 10 day(s).
| Time | Temp. | Humidity | Pressure | Rain* | Wind** | Luminosity | Snow |
|---|---|---|---|---|---|---|---|
| 1778116204 | 20.56° C | 76% | 1012.3 hPa | 0 mm | - | - | - |
| 1778115603 | 20.56° C | 73% | 1012.4 hPa | 0 mm | - | - | - |
| 1778115006 | 21.11° C | 72% | 1012.8 hPa | 0 mm | - | - | - |
| 1778114405 | 21.11° C | 71% | 1012.8 hPa | 0 mm | - | - | - |
| 1778113804 | 21.11° C | 70% | 1012.9 hPa | 0 mm | - | - | - |
| 1778113204 | 21.11° C | 71% | 1013.1 hPa | 0 mm | - | - | - |
| 1778112604 | 21.11° C | 72% | 1013.2 hPa | 0 mm | - | - | - |
| 1778112004 | 20.56° C | 72% | 1013.1 hPa | 0 mm | - | - | - |
| 1778111404 | 21.67° C | 71% | 1013.1 hPa | 0 mm | - | - | - |
| 1778110804 | 21.11° C | 73% | 1012.9 hPa | 0 mm | - | - | - |
| 1778110204 | 20.56° C | 73% | 1013 hPa | 0 mm | - | - | - |
| 1778109604 | 20.56° C | 74% | 1013.2 hPa | 0 mm | - | - | - |
| 1778109003 | 20.56° C | 74% | 1013.3 hPa | 0 mm | - | - | - |
| 1778108404 | 20.56° C | 74% | 1013.5 hPa | 0 mm | - | - | - |
| 1778107804 | 20.56° C | 75% | 1013.4 hPa | 0 mm | - | - | - |
| 1778107204 | 20.56° C | 76% | 1013.2 hPa | 0 mm | - | - | - |
| 1778106604 | 20.56° C | 77% | 1013.4 hPa | 0 mm | - | - | - |
| 1778106004 | 20.56° C | 81% | 1013.4 hPa | 0 mm | - | - | - |
| 1778105404 | 20° C | 83% | 1013.4 hPa | 0 mm | - | - | - |
| 1778104806 | 19.44° C | 87% | 1013.3 hPa | 0 mm | - | - | - |
| 1778104204 | 19.44° C | 89% | 1013.4 hPa | 0 mm | - | - | - |
| 1778103604 | 18.89° C | 92% | 1013.6 hPa | 0 mm | - | - | - |
| 1778103004 | 18.33° C | 92% | 1013.8 hPa | 0 mm | - | - | - |
| 1778102404 | 18.33° C | 93% | 1013.8 hPa | 0 mm | - | - | - |
| 1778101804 | 17.78° C | 92% | 1013.9 hPa | 0 mm | - | - | - |
* Rain latest hour (hover to see other rain measurements)
** Current wind speed in m/s (hover to see current wind gust speed)